Погода в Стерлитамаке

Погода в Стерлитамаке : погода сейчас, прогноз погоды и архив. Всё, что Вы хотите узнать о погоде в Стерлитамаке!

Хотите узнать прогноз погоды в Стерлитамаке? Тогда Вам сюда: Погода в Стерлитамаке

Поиск расширенной информации на нашем сайте:

Полезная информация:

Другие новости

Новости СМИ2

Главная страница сайта

Новости сайта

03.07.2017

Напоминаем, что на нашем специализированном сайте Метеоцентр.Азия вы можете получить высокодетализированные автоматические прогнозы погоды по пунктам России, СНГ и мира в авиационном формате (включающие направление и скорость ветра, видимость, явления погоды, количество и форму облачности, нижнюю и верхнюю границу облачности).

Рекомендуем:

Погода в Стерлитамаке - сегодня

Время (UTC), дата Ветер
(°,м/с) 
Видим.   Явления Облачность Т
(°С)
Тd
(°С)
f(%) Тe
(°С)
Pmin
(гПа)
dP
(гПа)
Po
(мм)
O2
(г/м3)
Тmin Tmax R s Состояние
почвы
03 16.07.19 240 (ЮЗ) 20000 м    3/0 верхняя 
[Ci fib]
+17 +12.9 77 +23  1010.1  2.1  746  280  +12.5    0.9    влажная 
06 16.07.19 280 (З) 20000 м    ясно 
+21.8 +11.5 52 +25  1010.8  746  276           
09 16.07.19 280 (З) 20000 м    3/3 1000 м 
[Cu hum]
+24.8 +10.9 42 +27  1011.7  747  274           
12 16.07.19 290 (З) 20000 м    4/4 1000 м 
[Cu hum]
+25 +9 36 +25  1011.9  0.2  747  274           
15 16.07.19 260 (З) 10 км    9/0 верхняя 
[Ci sp]
+24.6 +9.6 39 +25  1012.3  0.4  747  275    +25.9       
18 16.07.19 тихо ()   10 км    6/0 средняя, верхняя 
[Ac trans|Cc]
+16.2 +13.4 83 +22  1013.9  1.1  748  282           
21 16.07.19 тихо ()   10 км    8/0 средняя, верхняя 
[Ac trans|Ci sp]
+15 +13.2 89 +21  1014.4  0.5  749  283           
00 17.07.19 040 (СВ) 10 км    10/8 600 м кучево-дожд., средняя 
[Cb cap|Ac As]
+15.6 +13 85 +22  1014.8  0.4  749  283           
03 17.07.19 110 (В) 20000 м    9/3 1000 м кучево-дожд., средняя, верхняя 
[Cb cap|Ac cuf|Cc]
+17.6 +13.4 76 +25  1015.3  0.6  749  281  +14.6        сухая 
06 17.07.19 120 (ЮВ) 20000 м    9/0 верхняя 
[Ci sp]
+24 +12.4 48 +29  1014.1  -0.8  749  275           
09 17.07.19 070 (В) 20000 м    9/0 средняя, верхняя 
[Ac cast|Cc]
+26.6 +10.4 36 +28  1013  -0.9  748  273           
12 17.07.19 200 (Ю) 20000 м    9/0 средняя, верхняя 
[Ac trans|Cs]
+26.8 +10.4 36 +29  1012.6  -0.4  748  273           
15 17.07.19 200 (Ю) 10 км    10/6 1000 м средняя 
[Sc|Ac As]
+23.2 +12.1 50 +27  1012.7  0.1  748  275    +27.1       
18 17.07.19 160 (Ю) 10 км    9/4 1000 м средняя 
[Sc|Ac trans]
+20 +13.4 66 +26  1012.4  -0.4  747  278           
21 17.07.19 050 (СВ) 10 км    1/0 средняя 
[Ac trans]
+16.5 +13.1 80 +24  1012  -0.6  747  281           
00 18.07.19 050 (СВ) 10 км    ясно 
+15.3 +12.6 84 +22  1011  -1.1  746  282           
03 18.07.19 060 (СВ) 20000 м    ясно 
+20.7 +13.1 62 +26  1010.1  -0.5  746  277  +14.9        сухая 
06 18.07.19 050 (СВ) 20000 м    8/0 средняя, верхняя 
[Ac cast|Ci fib]
+25.4 +15.1 53 +34  1008.3  -1.5  745  271           
09 18.07.19 120 (ЮВ) 20000 м    9/3 1000 м средняя, верхняя 
[Cu hum|Ac cast|Ci fib]
+29.3 +11.1 32 +32  1007.2  -1  744  269           
12 18.07.19 150 (ЮВ) 20000 м    9/3 1000 м средняя, верхняя 
[Cu med, cong|Ac cast|Ci fib]
+32.6 +9 23 +33  1005.4  -1.6  743  266           
15 18.07.19 170 (Ю) 20000 м    8/1 1000 м верхняя 
[Cu med, cong|Cc]
+29.7 +11 31 +32  1005.4  0.1  743  268    +33.1       
18 18.07.19 тихо ()   10 км    3/0 средняя 
[Ac trans]
+22.8 +14.3 59 +31  1005.7  743  273           
21 18.07.19 тихо ()   10 км    6/5 600 м кучево-дожд., средняя 
[Cb cap|Ac trans]
+20.2 +14.7 71 +29  1006.6  0.8  743  276           
00 19.07.19 тихо ()   10 км    1/0 средняя 
[Ac trans]
+17 +14.4 85 +25  1007.6  0.8  744  279           
03 19.07.19 200 (Ю) 10 км    3/0 средняя, верхняя 
[Ac trans|Cc]
+20.8 +14.9 69 +30  1008.4  744  276  +16.5        сухая 
Время (UTC), дата Ветер
(°,м/с) 
Видим.   Явления Облачность Т
(°С)
Тd
(°С)
f(%) Тe
(°С)
Pmin
(гПа)
dP
(гПа)
Po
(мм)
O2
(г/м3)
Тmin Tmax R s Состояние
почвы

Для получения пояснительной информации подведите курсор к названию столбца.

ПОГОДА в Стерлитамаке - архив

Всё, что Вы хотите узнать о погоде в Стерлитамаке - удобно и подробно!

Выберите нужную дату (начиная с 1 января 2018* года) и нажмите кнопку "Найти".
Будут отображены архивные сводки погоды по пункту Стерлитамак, начиная с указанной даты.


Отображать данные в формате CSV (для использования в таблицах Excel)


Внимание! Наш архив погоды предназначен исключительно для личного некоммерческого использования в познавательных целях. Если Вам необходимы официальные справки о состоянии погоды (для производственных, юридических, коммерческих и т.п. целей), обращайтесь в органы Росгидромета.

*Примечание: данная дата относится к архиву по метеостанциям СССР (Россия, СНГ, Балтия).
Архив по метеостанциям Зарубежной Европы и Азии (кроме Китая) хранится 10 дней, по другим регионам земного шара (Китай, Африка, Америка, Австралия, Океания) - 1 день.

Стерлитамак - район местоположения метеостанции


Название, широта, долгота, высота метеостанции:
Стерлитамак 53.6°ш. 56°д. 137 м над ур. моря [Российская Федерация]

Дополнительная информация

В oтличие oт бoльшинства пoгoдных сайтoв мы публикуем пoдрoбную метеoинфoрмацию в детальнoм прoфессиoнальнoм фoрмате.

Характеристики температуры и влажнoсти вoздуха измеряются на высoте 2 м в тени вдали oт зданий и деревьев.
Скoрoсть ветра измеряется на высoте 10 м (на урoвне рoста челoвека скoрoсть ветра ниже в 1.5-2 раза). Если метеoстанция нахoдится в гoрoде или в лесу, тo скoрoсть ветра занижена на 2-4 м/с пo сравнению с oткрытым местoм. Скoрoсть ветра над акватoриями крупных рек и oзёр, а также на вершинах хoлмoв на 2-5 м/с выше, чем в oбычных услoвиях.
Атмoсфернoе давление в разных тoчках местнoсти мoжет значительнo oтличаться oт давления на метеoстанции, в зависимoсти oт услoвий рельефа (при пoдъёме на 10 м давление пoнижается примернo на 1 мм рт.ст.).